This demonstration page uses our WeatherBlox Daily Observations layout. Learn more.

Left ArrowRight Arrow

39.08367, -84.50855

Hourly Observations for March 22, 2019

Temp ( °F °C ) Dew Point ( °F °C ) Humidity (%) Winds ( mph kmh ) Pressure ( in mb ) Visibility ( mi km ) Precip ( " mm )
12:13 am 00:13 Cloudy 44 6.7 36 2.2 73 73 W 8 13 30.02 1017 9 14 N/A
12:27 am 00:27 Cloudy 44 6.7 35 1.7 71 71 W 9 15 30.02 1017 10 16 N/A
12:53 am 00:53 Cloudy 43 6.1 34 1.1 71 71 WSW 6 9 30.01 1016 10 16 N/A
1:53 am 01:53 Cloudy 43 6.1 34 1.1 71 71 WSW 10 17 30.01 1016 10 16 N/A
2:53 am 02:53 Cloudy 43 6.1 34 1.1 71 71 WSW 13 20 29.99 1016 10 16 N/A
3:53 am 03:53 Cloudy 42 5.6 35 1.7 76 76 SW 13 20 29.97 1015 10 16 N/A
4:53 am 04:53 Clear 39 3.9 33 0.6 79 79 SW 12 19 29.95 1014 10 16 N/A
5:53 am 05:53 Clear 39 3.9 33 0.6 79 79 SW 18 30 29.93 1014 10 16 N/A
6:53 am 06:53 Clear 39 3.9 33 0.6 79 79 SW 15 24 29.93 1014 10 16 N/A
7:53 am 07:53 Sunny 38 3.3 33 0.6 83 83 SW 14 22 29.94 1014 10 16 N/A
8:53 am 08:53 Sunny 41 5 34 1.1 76 76 WSW 17 28 29.93 1014 10 16 N/A
9:53 am 09:53 Sunny 44 6.7 35 1.7 71 71 WSW 14 22 29.93 1014 10 16 N/A
10:53 am 10:53 Sunny 47 8.3 36 2.2 66 66 WSW 17 28 29.93 1014 10 16 N/A
11:19 am 11:19 Sunny 48 8.9 36 2.2 63 63 W 13 20 29.95 1014 10 16 N/A
11:53 am 11:53 Cloudy 48 8.9 35 1.7 61 61 WNW 13 20 29.97 1015 10 16 N/A
12:53 pm 12:53 Cloudy 47 8.3 32 undefined 56 56 VRB 7 11 29.99 1016 10 16 N/A
1:53 pm 13:53 Cloudy 48 8.9 27 -2.8 44 44 N 20 31 30.01 1016 10 16 N/A
2:53 pm 14:53 Partly Cloudy 52 11.1 26 -3.3 37 37 WNW 13 20 30.01 1016 10 16 N/A
3:53 pm 15:53 Partly Cloudy 51 10.6 24 -4.4 35 35 W 10 17 30.03 1017 10 16 N/A
4:53 pm 16:53 Mostly Sunny 52 11.1 25 -3.9 35 35 NW 13 20 30.04 1017 10 16 N/A
5:53 pm 17:53 Mostly Sunny 51 10.6 24 -4.4 35 35 VRB 7 11 30.06 1018 10 16 N/A
6:53 pm 18:53 Mostly Sunny 50 10 24 -4.4 36 36 W 13 20 30.08 1019 10 16 N/A
7:53 pm 19:53 Clear 47 8.3 23 -5 39 39 NW 7 11 30.11 1020 10 16 N/A
8:53 pm 20:53 Clear 45 7.2 24 -4.4 44 44 W 7 11 30.14 1021 10 16 N/A
9:53 pm 21:53 Clear 43 6.1 24 -4.4 47 47 VRB 7 11 30.17 1022 10 16 N/A
10:53 pm 22:53 Clear 41 5 24 -4.4 51 51 WNW 8 13 30.20 1023 10 16 N/A
11:53 pm 23:53 Clear 39 3.9 25 -3.9 57 57 VRB 7 11 30.21 1023 10 16 N/A

Powered by AerisWeather